Regional Weather Roundup
Issued by NWS

Home | Current Version | Previous Version | Graphics & Text | Print | Product List | Glossary On
Versions: 1 2 3 4 5 6 7 8 9 10 11 12 13 14 15 16 17 18 19 20 21 22 23 24 25 26 27 28 29 30 31 32 33 34 35 36 37 38 39 40 41 42 43 44 45 46 47 48 49 50
000
ASUS45 KABQ 280110
RWRNM
WEATHER ROUNDUP FOR NEW MEXICO
NATIONAL WEATHER SERVICE ALBUQUERQUE NM
700 PM MDT WED AUG 27 2014

NOTE: "FAIR" MEANS FEW OR NO CLOUDS BELOW 12,000 FEET AGL WITH NO
       SIGNIFICANT WEATHER OR OBSTRUCTIONS TO VISION.

      THIS PRODUCT IS RELEASED AS TWO VERSIONS.  ONE VERSION NEAR
      THE TOP OF THE HOUR CONTAINING PRELIMINARY DATA FROM ALBUQUERQUE
      AND OTHER STATIONS.  A FINAL VERSION WITH ADDITIONAL DATA IS
      ISSUED ABOUT 10 MINUTES AFTER THE HOUR.

NMZ501-503-504-510>518-280200-
NORTHWEST PLATEAU/NORTHCENTRAL MOUNTAINS

CITY           SKY/WX    TMP DP  RH WIND       PRES   REMARKS
FARMINGTON     PTCLDY    70  45  40 E3        30.23F
LOS ALAMOS     CLEAR     66  47  50 CALM      30.32S
SANTA FE       CLEAR     73  40  30 W10       30.24F
ANGEL FIRE     FAIR      61  42  48 CALM      30.36F

$$
NMZ402-403-502-505>509-280200-
WESTCENTRAL MOUNTAINS/SOUTHWEST MOUNTAINS

CITY           SKY/WX    TMP DP  RH WIND       PRES   REMARKS
GALLUP         PTCLDY    72  40  31 W10       30.29R
SILVER CITY    MOCLDY    82  50  32 W12       30.20S

$$
NMZ407-409-411-412-280200-
SOUTHERN DESERTS

CITY           SKY/WX    TMP DP  RH WIND       PRES   REMARKS
LORDSBURG      FAIR      86  54  32 W7        30.11S
DEMING         MOCLDY    80  56  43 NE15      30.13R
LAS CRUCES     MOCLDY    73  61  66 NE6       30.16S
HOLLOMAN AFB   MOCLDY    82  59  44 W6        30.11R
ALAMOGORDO     MOCLDY    79  63  57 S3        30.13R
T OR C         PTCLDY    76  55  48 SW7       30.16F

$$
NMZ519>523-280200-
CENTRAL VALLEYS/CENTRAL HIGHLANDS

CITY           SKY/WX    TMP DP  RH WIND       PRES   REMARKS
ALBUQUERQUE    PTCLDY    79  48  33 NW3       30.19F
DOUBLE EAGLE   PTCLDY    75  48  38 CALM      30.22F
MORIARTY ARPT  FAIR      73  47  40 W8        30.25S
CLINES CORNERS CLEAR     69  48  47 W12       30.28F
BELEN          FAIR      77  52  41 E6        30.18S
SOCORRO        MOCLDY    77  63  60 W5        30.17R

$$
NMZ524>526-539-540-280200-
SOUTHCENTRAL MOUNTAINS

CITY           SKY/WX    TMP DP  RH WIND       PRES   REMARKS
RUIDOSO        MOCLDY    68  57  68 SE9       30.32R

$$
NMZ527>531-280200-
NORTHEAST HIGHLANDS/NORTHEAST PLAINS

CITY           SKY/WX    TMP DP  RH WIND       PRES   REMARKS
LAS VEGAS      CLEAR     69  42  37 SW16      30.25F
RATON          PTCLDY    74  42  31 W14       30.15R
CLAYTON        PTCLDY    77  52  41 S12       30.08S

$$
NMZ532>537-280200-
EASTCENTRAL PLAINS

CITY           SKY/WX    TMP DP  RH WIND       PRES   REMARKS
TUCUMCARI      CLEAR     86  51  29 SW13      30.03F
CANNON AFB     CLEAR     81  58  45 SW10      30.11S
CLOVIS AIRPORT   N/A     82  54  36 S13       30.12S

$$
NMZ028-029-538-280200-
SOUTHEAST PLAINS

CITY           SKY/WX    TMP DP  RH WIND       PRES   REMARKS
ROSWELL        PTCLDY    84  59  42 S7        30.06F
CARLSBAD       PTCLDY    86  60  41 E5        30.04S
HOBBS          MOCLDY    84  54  34 N6        30.08S


$$



USA.gov is the U.S. government's official web portal to all federal, state and local government web resources and services.